Cox Field Paris US
ICAO: KPRX
IATA: PRX
Category: Medium
Scheduled Services: No

Elevation: 547 ft
TransAlt. 18000 ft.

Airport Communications:
AWOS 3:119.675
FORT WORTH CNTR:123.925
FORT WORTH RDO:122.25
CTAF/UNICOM:122.975

KPRX Zoom In..

If you have problems with the map follow the link
https://www.worldairports.se/pages/airport.php?
ICAO=KPRX

Runways:

(A) RW 03 length 4624 ft width 150 ft
---- / hdg 33

(B) RW 14 length 4624 ft width 150 ft
---- / hdg 137

(C) RW 17 length 6002 ft width 100 ft
---- / hdg 175

(D) RW 21 length 4624 ft width 150 ft
---- / hdg 213

(E) RW 32 length 4624 ft width 150 ft
---- / hdg 317

(F) RW 35 length 6002 ft width 100 ft
---- / hdg 355

Location; KPRX
Day. 12 / Time. 06.56 Zulu
* Altimeter: 30.40
* Temperature: 01° c. 33.8°f.
* Wind from: 120° Speed 07 kn.
Dewpoint: -02° c.
Visibility: 10 Statute Miles.
Clouds: Clear (automated report).

KPRX 120656Z AUTO 12007KT 10SM CLR 01/M02 A3040 RMK AO2 SLP314 T00111017 FZRANO


Wind From 120°
Speed 07 kn.

 
 
jpsmedia worldairports.se 2019   terms of use